Showing default

NUSAT-52, 66692

Orbit data source: Space-Track

NUSAT-52, 66692 is a payload satellite owned by URUGUS S.A. (AR) in SSO that was launched on Fri, 28 Nov 2025 UTC via an FALCON 9 launch vehicle from the Air Force Western Test Range (AFWTR). Payload-class satellites include a variety of spacecraft equipped with specific instruments for various scientific and technological missions. These include communications satellites like Starlink; space stations such as the ISS; scientific satellites like the Hubble; Earth observation satellites from companies like Planet Labs, Umbra, and HawkEye 360; GPS; miniature CubeSats for education and research; and military/defense satellites.

Loading next visibility...
Identifier
66692, 2025-276AC
Orbit
SSO
Country
Flag of ARAR / ARGN
Related business
Manufacturer
URUGUS S.A.
Mission
Operational Commercial Imaging
Bus & Motor
NEWSAT V, Unknown motor
Mass
41.5 kg wet, 38.5 kg dry
Launch date (UTC)
2025-11-28 (9 months ago)
Launch vehicle
FALCON 9
Launch site
Air Force Western Test Range (AFWTR)
Object type
Payload
Rocket body
Debris
Shape & HBR
Box, 0.4 m
Radar Cross Section
0.542 m², Medium (>0.1 m² and < 1m²)

Expand to show TLE details & history
Last TLE update: 6 hours ago

TLE from 6 hours ago
0 NUSAT-52
1 66692U 25276AC  26238.45255703  .00004498  00000-0  20981-3 0  9991
2 66692  97.4166 310.8426 0004535 121.1438 239.0242 15.20351145 41098
Epoch: 2026-08-26T10:51Z
TLE epoch observation values (Epoch: 2026-08-26T10:51:40.927Z)
Latitude
-0.00007°
Longitude
173.21673°
Altitude
509.479 km
Speed
7.608 km/s
True Right ascension
20h 43m 22s
True Declination
0° 00' 00"
Sunlit
Object was in full shadow at epoch
Visualization orbit readout
Latitude
Unknown
Longitude
Unknown
Altitude
Unknown
Speed
Unknown
Apparent Right ascension
Unknown
Apparent Declination
Unknown
Sunlit
N/A
Visualization observer readout
Local Sidereal Time
08:22:14
Azimuth
Unknown
Elevation
Unknown
Doppler factor
Unknown
Orbital elements
Apogee altitude
504.866 km
Perigee altitude
498.626 km
Semi-major axis
6,879.883 km
Eccentricity
0.00045
Inclination
97.4166°
RAAN
310.8426°
Arg. of periapsis
121.1438°
True anomaly
238.97966°
Mean anomaly
239.0242°
Eccentric anomaly
239.00193°
Mean motion
3.8034 °/min
Orbital period
94.65 mins
BSTAR
0.00020981
Loading maneuver chart data...
Computing Atmospheric mass density...
Loading historical data...
Loading historical data...
Loading historical data...
Loading historical data...
Loading historical data...
Loading historical data...
Loading historical data...

Documentation

Showing up to 5 results
|